When you browse on this site, cookies collect data to enhance your experience and personalize the content and advertising you see.
Visit our Privacy Policy to learn more. By continuing to use the site, you agree to this use of cookies and data.
  • In Portugal
  • List of Countries
  • For 7 days
  • Water Temperature
  • Weather Map
  • Weather Widgets
  • user-avatar
    Login

    Hourly Weather Marbella

    Today, 10 December, Tuesday

    Time Temperature Precipitation Wind Pressure Humidity
    00:00 +14°C° 0 mm 2 mps 765 mmHg 56%
    01:00 +14°C° 0 mm 2 mps 764 mmHg 55%
    02:00 +14°C° 0 mm 2 mps 764 mmHg 55%
    03:00 +14°C° 0 mm 2 mps 764 mmHg 54%
    04:00 +14°C° 0 mm 2 mps 764 mmHg 51%
    05:00 +14°C° 0 mm 2 mps 764 mmHg 48%
    06:00 +14°C° 0 mm 2 mps 764 mmHg 45%
    07:00 +15°C° 0 mm 1 mps 764 mmHg 44%
    08:00 +16°C° 0 mm 1 mps 764 mmHg 44%
    09:00 +18°C° 0 mm 1 mps 764 mmHg 43%
    10:00 +19°C° 0 mm 1 mps 764 mmHg 41%
    11:00 +20°C° 0 mm 1 mps 764 mmHg 40%
    12:00 +21°C° 0 mm 2 mps 764 mmHg 38%
    13:00 +21°C° 0 mm 2 mps 763 mmHg 40%
    14:00 +21°C° 0 mm 2 mps 763 mmHg 43%
    15:00 +21°C° 0 mm 2 mps 762 mmHg 45%
    16:00 +19°C° 0 mm 2 mps 762 mmHg 50%
    17:00 +17°C° 0 mm 3 mps 762 mmHg 55%
    18:00 +16°C° 0 mm 3 mps 762 mmHg 59%
    19:00 +14°C° 0 mm 3 mps 762 mmHg 51%
    20:00 +14°C° 0 mm 3 mps 763 mmHg 42%
    21:00 +14°C° 0 mm 3 mps 763 mmHg 34%
    22:00 +14°C° 0 mm 3 mps 763 mmHg 34%
    23:00 +14°C° 0 mm 3 mps 763 mmHg 33%

    Tomorrow, 11 December, Wednesday

    Time Temperature Precipitation Wind Pressure Humidity
    00:00 +14°C° 0 mm 3 mps 763 mmHg 33%
    01:00 +13°C° 0 mm 3 mps 762 mmHg 35%
    02:00 +13°C° 0 mm 3 mps 762 mmHg 36%
    03:00 +13°C° 0 mm 3 mps 762 mmHg 38%
    04:00 +13°C° 0 mm 4 mps 762 mmHg 40%
    05:00 +13°C° 0 mm 4 mps 762 mmHg 42%
    06:00 +13°C° 0 mm 4 mps 762 mmHg 45%
    07:00 +13°C° 0 mm 4 mps 762 mmHg 46%
    08:00 +14°C° 0 mm 4 mps 763 mmHg 47%
    09:00 +15°C° 0 mm 4 mps 763 mmHg 48%
    10:00 +17°C° 0 mm 4 mps 763 mmHg 44%
    11:00 +19°C° 0 mm 4 mps 763 mmHg 41%
    12:00 +20°C° 0 mm 4 mps 762 mmHg 37%
    13:00 +20°C° 0 mm 4 mps 762 mmHg 44%
    14:00 +20°C° 0 mm 5 mps 761 mmHg 51%
    15:00 +20°C° 0 mm 5 mps 761 mmHg 58%
    16:00 +17°C° 0 mm 5 mps 761 mmHg 64%
    17:00 +16°C° 0 mm 5 mps 762 mmHg 70%
    18:00 +14°C° 0 mm 5 mps 762 mmHg 76%
    19:00 +14°C° 0 mm 4 mps 762 mmHg 78%
    20:00 +13°C° 0 mm 4 mps 762 mmHg 80%
    21:00 +13°C° 0 mm 4 mps 763 mmHg 82%
    22:00 +12°C° 0 mm 4 mps 763 mmHg 82%
    23:00 +12°C° 0 mm 4 mps 763 mmHg 82%

    Day after tomorrow, 12 December, Thursday

    Time Temperature Precipitation Wind Pressure Humidity
    00:00 +11°C° 0 mm 4 mps 763 mmHg 82%
    01:00 +11°C° 0 mm 4 mps 763 mmHg 75%
    02:00 +10°C° 0 mm 4 mps 763 mmHg 69%
    03:00 +10°C° 0 mm 4 mps 763 mmHg 62%
    04:00 +8°C° 0 mm 4 mps 763 mmHg 63%
    05:00 +8°C° 0 mm 4 mps 762 mmHg 64%
    06:00 +8°C° 0 mm 4 mps 762 mmHg 64%
    07:00 +10°C° 0 mm 4 mps 763 mmHg 64%
    08:00 +10°C° 0 mm 4 mps 763 mmHg 63%
    09:00 +11°C° 0 mm 4 mps 764 mmHg 62%
    10:00 +12°C° 0 mm 4 mps 763 mmHg 60%
    11:00 +13°C° 0 mm 4 mps 763 mmHg 57%
    12:00 +15°C° 0 mm 5 mps 763 mmHg 55%
    13:00 +15°C° 0 mm 5 mps 763 mmHg 57%
    14:00 +15°C° 0 mm 5 mps 762 mmHg 58%
    15:00 +15°C° 0 mm 5 mps 762 mmHg 60%
    16:00 +14°C° 0 mm 5 mps 762 mmHg 66%
    17:00 +13°C° 0 mm 5 mps 762 mmHg 72%
    18:00 +12°C° 0 mm 5 mps 762 mmHg 78%
    19:00 +12°C° 0 mm 5 mps 763 mmHg 81%
    20:00 +10°C° 0 mm 5 mps 763 mmHg 83%
    21:00 +10°C° 0 mm 5 mps 763 mmHg 85%
    22:00 +10°C° 0 mm 5 mps 763 mmHg 85%
    23:00 +10°C° 0 mm 5 mps 763 mmHg 86%

    13 December, Friday

    Time Temperature Precipitation Wind Pressure Humidity
    00:00 +10°C° 0 mm 5 mps 762 mmHg 86%
    01:00 +12°C° 0 mm 5 mps 762 mmHg 87%
    02:00 +12°C° 0 mm 5 mps 762 mmHg 88%
    03:00 +11°C° 0 mm 6 mps 761 mmHg 89%
    04:00 +13°C° 0 mm 6 mps 761 mmHg 90%
    05:00 +13°C° 0 mm 6 mps 761 mmHg 91%
    06:00 +14°C° 0 mm 6 mps 760 mmHg 92%
    07:00 +14°C° 0.1 mm 6 mps 761 mmHg 90%
    08:00 +15°C° 0.1 mm 6 mps 761 mmHg 89%
    09:00 +15°C° 0.1 mm 6 mps 762 mmHg 87%
    10:00 +16°C° 0 mm 6 mps 762 mmHg 81%
    11:00 +17°C° 0 mm 6 mps 762 mmHg 74%
    12:00 +17°C° 0 mm 6 mps 762 mmHg 68%
    13:00 +17°C° 0 mm 6 mps 761 mmHg 68%
    14:00 +17°C° 0 mm 6 mps 761 mmHg 69%
    15:00 +17°C° 0 mm 6 mps 760 mmHg 69%
    16:00 +16°C° 0 mm 5 mps 760 mmHg 74%
    17:00 +15°C° 0 mm 5 mps 761 mmHg 79%
    18:00 +14°C° 0 mm 5 mps 761 mmHg 84%
    19:00 +14°C° 0 mm 4 mps 761 mmHg 85%
    20:00 +14°C° 0 mm 4 mps 761 mmHg 86%
    21:00 +13°C° 0 mm 4 mps 761 mmHg 86%
    22:00 +13°C° 0 mm 4 mps 761 mmHg 86%
    23:00 +13°C° 0 mm 4 mps 761 mmHg 86%

    14 December, Saturday

    Time Temperature Precipitation Wind Pressure Humidity
    00:00 +13°C° 0 mm 3 mps 761 mmHg 85%
    01:00 +13°C° 0 mm 3 mps 761 mmHg 85%
    02:00 +12°C° 0 mm 4 mps 761 mmHg 85%
    03:00 +12°C° 0 mm 4 mps 761 mmHg 85%
    04:00 +12°C° 0 mm 4 mps 760 mmHg 85%
    05:00 +12°C° 0 mm 4 mps 760 mmHg 85%
    06:00 +12°C° 0 mm 4 mps 760 mmHg 85%
    07:00 +12°C° 0 mm 4 mps 761 mmHg 83%
    08:00 +13°C° 0 mm 4 mps 761 mmHg 80%
    09:00 +14°C° 0 mm 4 mps 761 mmHg 78%
    10:00 +15°C° 0 mm 4 mps 761 mmHg 72%
    11:00 +17°C° 0 mm 4 mps 760 mmHg 66%
    12:00 +19°C° 0 mm 4 mps 760 mmHg 60%
    13:00 +19°C° 0 mm 4 mps 760 mmHg 59%
    14:00 +19°C° 0 mm 4 mps 759 mmHg 58%
    15:00 +19°C° 0 mm 4 mps 759 mmHg 57%
    16:00 +18°C° 0 mm 4 mps 759 mmHg 64%
    17:00 +15°C° 0 mm 4 mps 759 mmHg 70%
    18:00 +14°C° 0 mm 4 mps 759 mmHg 76%
    19:00 +13°C° 0 mm 4 mps 759 mmHg 78%
    20:00 +13°C° 0 mm 4 mps 759 mmHg 79%
    21:00 +12°C° 0 mm 4 mps 759 mmHg 80%
    22:00 +12°C° 0 mm 4 mps 759 mmHg 80%
    23:00 +12°C° 0 mm 4 mps 759 mmHg 80%

    15 December, Sunday

    Time Temperature Precipitation Wind Pressure Humidity
    00:00 +12°C° 0 mm 4 mps 759 mmHg 79%
    01:00 +12°C° 0 mm 3 mps 759 mmHg 79%
    02:00 +12°C° 0 mm 3 mps 758 mmHg 79%
    03:00 +11°C° 0 mm 3 mps 758 mmHg 78%
    04:00 +11°C° 0 mm 3 mps 758 mmHg 77%
    05:00 +11°C° 0 mm 3 mps 758 mmHg 77%
    06:00 +11°C° 0 mm 3 mps 757 mmHg 76%
    07:00 +12°C° 0 mm 3 mps 758 mmHg 74%
    08:00 +13°C° 0 mm 3 mps 758 mmHg 72%
    09:00 +13°C° 0 mm 3 mps 758 mmHg 69%
    10:00 +15°C° 0 mm 2 mps 758 mmHg 65%
    11:00 +17°C° 0 mm 2 mps 757 mmHg 61%
    12:00 +18°C° 0 mm 2 mps 757 mmHg 57%
    13:00 +18°C° 0 mm 2 mps 757 mmHg 58%
    14:00 +18°C° 0 mm 2 mps 756 mmHg 59%
    15:00 +18°C° 0 mm 2 mps 755 mmHg 60%
    16:00 +17°C° 0 mm 2 mps 755 mmHg 66%
    17:00 +16°C° 0 mm 2 mps 755 mmHg 72%
    18:00 +14°C° 0 mm 2 mps 755 mmHg 78%
    19:00 +14°C° 0 mm 2 mps 755 mmHg 78%
    20:00 +14°C° 0 mm 1 mps 755 mmHg 78%
    21:00 +14°C° 0 mm 1 mps 755 mmHg 78%
    22:00 +14°C° 0 mm 1 mps 755 mmHg 79%
    23:00 +14°C° 0 mm 1 mps 754 mmHg 79%
    Show more